Simultaneous Nadir Overpasses (SNOs) Predictions

Prediction of SNOs between GOES-16 and AQUA Satellite Orbit:

Table of predicted SNOs for the next 14.0 days since TLE Epoch: 5/22/2020
Index Date Time (GOES-16) GOES-16 Lat,Lon AQUA Lat,Lon Distance(km) Time Diff (sec)
1 05/24/2020 18:35:27 0.01, -75.20 0.12, -74.62 65.53 80
2 05/26/2020 18:23:16 0.01, -75.20 0.78, -71.67 401.86 80
3 05/27/2020 06:44:31 -0.01, -75.20 0.32, -76.82 184.72 80
4 05/29/2020 06:29:39 -0.00, -75.20 -0.28, -73.86 152.15 80
5 05/29/2020 18:51:04 0.00, -75.21 -0.80, -79.06 437.68 80
6 05/31/2020 06:17:28 -0.00, -75.21 -0.94, -70.91 489.64 80
7 05/31/2020 18:38:52 0.00, -75.22 -0.19, -76.10 99.94 80
8 06/02/2020 18:29:20 0.00, -75.24 0.42, -73.14 238.39 80
9 06/03/2020 06:50:36 -0.00, -75.24 0.63, -78.30 347.49 80
10 06/05/2020 06:38:24 0.01, -75.26 0.02, -75.34 8.68 80




NCC Satellite Simultaneous Nadir Overpasses (SNOs) Prediction Service
